[[{"header":{"parameterUnit":"m.s-1","parameterCategory":1,"la1":30.2991,"la2":30.254,"lo1":-89.0895,"lo2":-89.0444,"dy":0.0017,"dx":0.0017,"nx":28,"ny":28,"refTime":"2024-05-16T21:00:00:Z","depth":0,"parameterNumber":2,"parameterNumberName":"U-component_of_WINDS"},"data":[0,0,0,0,0,0,0,0,0,0,0,0,0,0,0,0,0,0,0,0,0,0,0,0,0,0,0,0,0,0,0,0,0,0,0,0,0,0,0,0,0,0,0,0,0,0,0,0,0,0,0,0,0,0,0,0,0,0,0.3873,0.3872,0,0.385,0.3849,0.3849,0.3795,0.3794,0.3793,0.3792,0.3768,0.3768,0.3769,0,0,0,0,0,0,0,0,0,0,0,0,0,0.3867,0.3867,0.3873,0.3872,0.3872,0.385,0.3849,0.3849,0.3795,0.3794,0.3793,0.3791,0.3768,0.3768,0.3769,0,0,0,0,0,0,0,0,0,0,0,0,0,0.3859,0.3868,0.3873,0.3842,0.384,0.385,0.3849,0.3849,0.3796,0.3794,0.3792,0.3791,0.3767,0.3768,0.3769,0.3806,0,0,0.377,0.3771,0,0,0,0,0,0,0,0,0.386,0.386,0.3847,0.3845,0.3841,0.3823,0.3838,0.3834,0.3796,0.3812,0.3792,0.379,0.3788,0.3786,0.3786,0.3805,0.3804,0.3771,0.3771,0.3771,0.3771,0,0,0,0,0,0,0,0.386,0.386,0.3863,0.3847,0.3843,0.3829,0.3826,0.3837,0.381,0.3811,0.3807,0.3805,0.3786,0.3785,0.3785,0.3803,0.377,0.3771,0.3771,0.3772,0.3848,0.385,0,0,0,0,0,0,0.3866,0.3861,0.3864,0.3863,0.3847,0.3831,0.3827,0.3831,0.3809,0.3804,0.3806,0.3802,0.3785,0.3784,0.3784,0.3824,0.3771,0.3772,0.3772,0.3847,0.3849,0.3851,0,0,0,0,0,0,0.3866,0.3866,0.3865,0.3861,0.3859,0.3832,0.3837,0.3831,0.3831,0.3806,0.3801,0.3811,0.3784,0.3783,0.38,0.3823,0.3772,0.3773,0.3845,0.3847,0.385,0.3907,0,0,0,0,0,0,0.3866,0.3867,0.3882,0.3862,0.386,0.3883,0.3838,0.3832,0.3832,0.3827,0.3809,0.3805,0.3782,0.3799,0.3801,0.3823,0.3773,0.3843,0.3846,0.3849,0.3903,0.3911,0.3918,0,0,0,0,0,0.3866,0.3899,0.3883,0.3883,0.3878,0.3884,0.3883,0.3857,0.3834,0.3848,0.3831,0.3805,0.382,0.3802,0.3803,0.3825,0.3841,0.3845,0.3849,0.3899,0.3909,0.3918,0,0,0,0,0,0,0.3923,0.3896,0.3878,0.3906,0.3898,0.3875,0.3892,0.3869,0.3868,0.3863,0.383,0.3826,0.3847,0.3838,0.3818,0.3858,0.3826,0.383,0.3864,0.3873,0.3881,0.3883,0.3773,0,0,0,0,0,0.3939,0.3947,0.3923,0.395,0.3947,0.392,0.3922,0.3902,0.3893,0.3889,0.3874,0.3865,0.3867,0.387,0.3871,0.39,0.3895,0.3916,0.3924,0.393,0.3934,0.3947,0.3955,0.3863,0.3863,0.3863,0,0,0.3973,0.3958,0.3966,0.3961,0.3952,0.396,0.3918,0.3929,0.3934,0.3891,0.3906,0.3894,0.3882,0.3905,0.3914,0.3897,0.3958,0.3935,0.394,0.3941,0.3951,0.396,0.3968,0.3866,0.3865,0.3865,0,0,0.4037,0.4028,0.4048,0.404,0.4027,0.4008,0.4013,0.3994,0.3984,0.3998,0.3965,0.397,0.3976,0.3968,0.3964,0.4022,0.3997,0.4023,0.4063,0.4075,0.4083,0.4089,0.4108,0.4116,0.4027,0.4027,0.4027,0,0.408,0.4091,0.4061,0.4073,0.4071,0.4031,0.4051,0.4044,0.4032,0.4031,0.4012,0.4016,0.4006,0.4025,0.4039,0.4038,0.4041,0.4025,0.4084,0.409,0.4095,0.4113,0.4121,0.403,0.403,0.403,0.4029,0,0.4143,0.4151,0.4169,0.4157,0.4157,0.4173,0.4145,0.4148,0.4127,0.411,0.4124,0.4109,0.4105,0.4108,0.4089,0.4124,0.4114,0.409,0.4057,0.4108,0.4124,0.4131,0.4035,0.4034,0.4033,0.4032,0,0,0.4245,0.4215,0.4222,0.4215,0.4197,0.4202,0.4214,0.421,0.4213,0.4205,0.4214,0.4218,0.4195,0.4191,0.417,0.4181,0.4225,0.4155,0.4154,0.4168,0.4261,0.4279,0.4288,0.4208,0.4209,0.421,0.4262,0,0.4305,0.4325,0.4298,0.4324,0.433,0.429,0.4301,0.429,0.4274,0.4275,0.4257,0.426,0.423,0.4227,0.4236,0.4218,0.4243,0.4214,0.4215,0.4216,0.422,0.4297,0.4316,0.4366,0.4268,0.4269,0.427,0,0.4377,0.4372,0.4399,0.4376,0.4377,0.4388,0.438,0.4382,0.4368,0.4355,0.4349,0.4323,0.4333,0.43,0.4312,0.4292,0.4291,0.4281,0.4282,0.4282,0.4247,0.4298,0.4382,0.4389,0.428,0.4279,0.4279,0,0.4448,0.4447,0.4462,0.4458,0.4432,0.444,0.4429,0.4413,0.4411,0.4404,0.4402,0.4397,0.4394,0.4389,0.4362,0.4341,0.4376,0.4342,0.4365,0.4366,0.4375,0.4375,0.4459,0.4374,0.4374,0.4374,0.4374,0,0.4517,0.4535,0.4493,0.4503,0.452,0.4487,0.4506,0.4491,0.4476,0.4481,0.4447,0.4452,0.4415,0.4416,0.4395,0.4406,0.4406,0.4395,0.4389,0.4398,0.4399,0.4397,0.4393,0.4376,0.4376,0.4375,0.4375,0,0.4599,0.4572,0.4586,0.4559,0.4553,0.4567,0.4544,0.455,0.4531,0.4537,0.4537,0.4507,0.4505,0.4477,0.4471,0.4456,0.4476,0.4464,0.4481,0.4477,0.4502,0.45,0.4588,0.4597,0.4507,0.4508,0.4508,0,0.4645,0.4657,0.4631,0.4632,0.4623,0.4624,0.4622,0.4589,0.4587,0.457,0.4579,0.4575,0.457,0.4569,0.4546,0.454,0.4527,0.4558,0.4526,0.4534,0.4527,0.4527,0.4527,0.4566,0.4567,0.4568,0.4569,0,0.4729,0.4714,0.4712,0.4705,0.4702,0.4695,0.4685,0.4687,0.4651,0.4651,0.4649,0.4645,0.4636,0.4632,0.4622,0.461,0.4583,0.4579,0.4583,0.4593,0.4602,0.4597,0.45,0.4577,0.4576,0.4576,0.4575,0.4575,0.4794,0.4802,0.4784,0.4782,0.4771,0.4762,0.4766,0.4747,0.4744,0.4735,0.4715,0.4716,0.4699,0.4681,0.4671,0.4671,0.4655,0.4662,0.4664,0.4667,0.4671,0.4602,0.4669,0.4668,0.4668,0.4668,0.4668,0,0.4875,0.4861,0.486,0.4846,0.4844,0.4818,0.4805,0.4805,0.4806,0.4792,0.4787,0.4783,0.4779,0.4754,0.4746,0.475,0.4738,0.4749,0.4749,0.4746,0.4686,0.4683,0.476,0.476,0.476,0.4759,0.4759,0.4759,0.4918,0.4929,0.4912,0.4917,0.4903,0.4903,0.4898,0.4888,0.4877,0.4875,0.487,0.4854,0.4835,0.4825,0.4819,0.4812,0.481,0.4826,0.4815,0.4759,0.4751,0.4742,0.4738,0.4826,0.4826,0.4874,0.4875,0.4875]},{"header":{"parameterUnit":"m.s-1","parameterCategory":1,"la1":30.2991,"la2":30.254,"lo1":-89.0895,"lo2":-89.0444,"dy":0.0017,"dx":0.0017,"nx":28,"ny":28,"refTime":"2024-05-16T21:00:00:Z","depth":0,"parameterNumber":3,"parameterNumberName":"V-component_of_WINDS"},"data":[0,0,0,0,0,0,0,0,0,0,0,0,0,0,0,0,0,0,0,0,0,0,0,0,0,0,0,0,0,0,0,0,0,0,0,0,0,0,0,0,0,0,0,0,0,0,0,0,0,0,0,0,0,0,0,0,0,0,-5.2333,-5.2336,0,-5.2658,-5.2662,-5.2666,-5.2729,-5.2727,-5.2724,-5.2722,-5.3041,-5.3052,-5.3062,0,0,0,0,0,0,0,0,0,0,0,0,0,-5.175,-5.176,-5.2333,-5.2337,-5.2341,-5.2658,-5.2662,-5.2667,-5.273,-5.2727,-5.2724,-5.2721,-5.3038,-5.305,-5.3063,0,0,0,0,0,0,0,0,0,0,0,0,0,-5.2032,-5.1764,-5.2332,-5.2411,-5.2421,-5.2657,-5.2662,-5.2668,-5.273,-5.2727,-5.2723,-5.2719,-5.3033,-5.3049,-5.3065,-5.3241,0,0,-5.3115,-5.3122,0,0,0,0,0,0,0,0,-5.2015,-5.2053,-5.2395,-5.2406,-5.2418,-5.265,-5.2574,-5.2859,-5.2731,-5.2613,-5.2722,-5.2717,-5.2913,-5.2939,-5.3008,-5.3256,-5.3269,-5.3116,-5.3126,-5.3133,-5.3138,0,0,0,0,0,0,0,-5.1996,-5.2039,-5.2461,-5.24,-5.2414,-5.2425,-5.2461,-5.2628,-5.2779,-5.2623,-5.2628,-5.2666,-5.2918,-5.2992,-5.3016,-5.3274,-5.3116,-5.313,-5.314,-5.3147,-5.3676,-5.368,0,0,0,0,0,0,-5.1964,-5.2022,-5.2451,-5.2471,-5.2204,-5.2438,-5.2479,-5.2579,-5.2778,-5.2805,-5.2669,-5.2668,-5.2966,-5.2997,-5.3027,-5.3243,-5.3133,-5.3148,-5.3158,-5.3672,-5.3677,-5.3682,0,0,0,0,0,0,-5.1952,-5.2002,-5.2438,-5.2249,-5.2305,-5.2453,-5.2564,-5.2587,-5.2661,-5.2814,-5.2839,-5.2718,-5.2964,-5.3004,-5.3187,-5.3254,-5.3156,-5.317,-5.3667,-5.3674,-5.368,-5.3676,0,0,0,0,0,0,-5.1935,-5.1997,-5.207,-5.225,-5.2315,-5.2597,-5.2569,-5.2596,-5.2691,-5.2692,-5.2866,-5.2891,-5.2964,-5.3162,-5.3203,-5.3275,-5.3183,-5.3661,-5.367,-5.3677,-5.3671,-5.3682,-5.3691,0,0,0,0,0,-5.1914,-5.2054,-5.2073,-5.2124,-5.2409,-5.2601,-5.2637,-5.2724,-5.2696,-5.2767,-5.2864,-5.2885,-5.3241,-5.3181,-5.3227,-5.3305,-5.3657,-5.3667,-5.3677,-5.3666,-5.368,-5.3691,0,0,0,0,0,0,-5.1874,-5.2079,-5.2102,-5.2306,-5.2436,-5.2611,-5.2704,-5.2736,-5.2873,-5.2868,-5.2964,-5.3003,-5.3178,-5.326,-5.3189,-5.3482,-5.3447,-5.3466,-5.3423,-5.3437,-5.3447,-5.3422,-5.3197,0,0,0,0,0,-5.1889,-5.2033,-5.2202,-5.2365,-5.243,-5.2555,-5.2642,-5.2697,-5.2834,-5.2888,-5.2999,-5.3126,-5.3266,-5.3356,-5.3494,-5.3683,-5.3718,-5.3759,-5.3769,-5.3776,-5.3791,-5.3892,-5.391,-5.3714,-5.3714,-5.3713,0,0,-5.1921,-5.2051,-5.2135,-5.236,-5.2468,-5.2608,-5.2601,-5.2752,-5.2855,-5.2909,-5.3089,-5.3174,-5.3322,-5.3508,-5.3595,-5.3581,-5.3853,-5.3789,-5.3794,-5.3805,-5.3904,-5.3922,-5.3939,-5.372,-5.3719,-5.3718,0,0,-5.2051,-5.2167,-5.2313,-5.2421,-5.2585,-5.2667,-5.2701,-5.2873,-5.2932,-5.3115,-5.3157,-5.3279,-5.352,-5.3623,-5.3706,-5.3871,-5.3894,-5.3913,-5.3965,-5.4062,-5.4077,-5.4091,-5.4146,-5.4165,-5.3928,-5.3928,-5.3928,0,-5.2069,-5.2289,-5.2383,-5.2532,-5.2627,-5.2686,-5.2831,-5.293,-5.3128,-5.3189,-5.3172,-5.3473,-5.3577,-5.3785,-5.3826,-5.3893,-5.3931,-5.3893,-5.4069,-5.4084,-5.4098,-5.4151,-5.4172,-5.3929,-5.3929,-5.3929,-5.3928,0,-5.23,-5.2451,-5.2549,-5.2743,-5.2849,-5.2995,-5.3106,-5.3201,-5.3246,-5.3327,-5.3509,-5.3636,-5.3799,-5.3852,-5.3897,-5.4065,-5.4051,-5.405,-5.4016,-5.4116,-5.4167,-5.4189,-5.393,-5.393,-5.393,-5.3929,0,0,-5.2415,-5.2658,-5.2692,-5.2779,-5.2962,-5.3078,-5.3224,-5.3387,-5.3464,-5.3598,-5.3718,-5.392,-5.3919,-5.4014,-5.4069,-5.4155,-5.4272,-5.4143,-5.4148,-5.4159,-5.446,-5.4457,-5.448,-5.4289,-5.4293,-5.4297,-5.4446,0,-5.2564,-5.2833,-5.292,-5.314,-5.3277,-5.3334,-5.346,-5.3582,-5.3662,-5.3786,-5.3872,-5.4011,-5.4003,-5.4059,-5.4147,-5.4239,-5.4333,-5.423,-5.4396,-5.4401,-5.4355,-5.4508,-5.4507,-5.4641,-5.4467,-5.4471,-5.4473,0,-5.2776,-5.2916,-5.3151,-5.3314,-5.3375,-5.3487,-5.3641,-5.3761,-5.3898,-5.395,-5.4055,-5.4103,-5.4251,-5.421,-5.4411,-5.4339,-5.4412,-5.4467,-5.4474,-5.449,-5.4441,-5.4524,-5.4687,-5.4706,-5.4506,-5.4504,-5.4501,0,-5.283,-5.3078,-5.325,-5.3322,-5.3518,-5.3595,-5.3679,-5.3814,-5.3904,-5.4037,-5.4096,-5.4242,-5.4321,-5.4431,-5.4515,-5.4478,-5.4707,-5.4674,-5.4749,-5.4746,-5.4793,-5.4788,-5.4966,-5.4845,-5.4844,-5.4844,-5.4843,0,-5.2987,-5.3127,-5.3277,-5.3382,-5.3539,-5.3635,-5.3786,-5.3872,-5.3991,-5.4109,-5.4165,-5.4274,-5.438,-5.4501,-5.4567,-5.4721,-5.4757,-5.4798,-5.4813,-5.4792,-5.4786,-5.4839,-5.483,-5.4849,-5.4848,-5.4847,-5.4846,0,-5.3074,-5.3181,-5.3371,-5.3541,-5.3586,-5.3694,-5.3836,-5.3937,-5.4019,-5.4167,-5.4207,-5.4334,-5.4478,-5.4574,-5.4758,-5.4802,-5.4968,-5.4983,-5.4923,-5.493,-5.4998,-5.4989,-5.5214,-5.5246,-5.5105,-5.5106,-5.5108,0,-5.3166,-5.3276,-5.3457,-5.3543,-5.3628,-5.3765,-5.3859,-5.3956,-5.405,-5.4213,-5.4293,-5.4442,-5.4567,-5.4794,-5.4899,-5.5038,-5.5054,-5.5123,-5.5075,-5.5049,-5.5051,-5.5042,-5.5051,-5.513,-5.5131,-5.5132,-5.5133,0,-5.3315,-5.3362,-5.3498,-5.3651,-5.3762,-5.3886,-5.401,-5.4075,-5.4192,-5.4294,-5.4445,-5.4542,-5.473,-5.4876,-5.5025,-5.5104,-5.5136,-5.5147,-5.5171,-5.5149,-5.5108,-5.5127,-5.494,-5.5141,-5.514,-5.514,-5.5139,-5.5139,-5.3405,-5.3504,-5.3647,-5.3795,-5.3899,-5.4012,-5.4115,-5.421,-5.4339,-5.4504,-5.4551,-5.4707,-5.4836,-5.504,-5.5123,-5.5241,-5.5233,-5.5269,-5.5278,-5.5284,-5.5283,-5.5092,-5.5269,-5.5269,-5.5269,-5.5269,-5.5269,0,-5.3555,-5.3649,-5.3785,-5.3957,-5.4072,-5.4097,-5.4234,-5.4326,-5.4465,-5.4585,-5.4708,-5.4878,-5.5018,-5.5133,-5.5277,-5.5349,-5.5367,-5.5383,-5.5377,-5.5394,-5.5284,-5.5247,-5.5366,-5.5366,-5.5366,-5.5366,-5.5366,-5.5366,-5.3646,-5.3813,-5.3876,-5.4093,-5.4185,-5.4342,-5.4418,-5.452,-5.4617,-5.4807,-5.4925,-5.5001,-5.5118,-5.527,-5.5397,-5.5427,-5.5475,-5.5487,-5.5519,-5.5413,-5.5402,-5.5392,-5.5358,-5.5498,-5.5498,-5.5619,-5.5621,-5.5621]}]]